Location: Buch
(50.1863°N, 11.0141°E)
Time: 16:07:22
(UTC+00:00)

Cosmos 2058 Rocket - Pass Details

Date: 18 January 2020
Orbit: 610 x 639 km, 82.5° (Epoch: 19 February)

Event Time Altitude Azimuth Distance (km) Brightness Sun altitude
Rises 05:53:45 0° 190° (S) 2,898 6.6 -11.5°
Reaches altitude 10° 05:55:59 10° 191° (S) 1,991 5.8 -11.1°
Maximum altitude 06:00:24 83° 278° (W) 631 3.0 -10.5°
Drops below altitude 10° 06:04:49 10° 9° (N) 1,991 5.5 -9.8°
Sets 06:07:03 0° 10° (N) 2,898 6.4 -9.5°
